2023/01/25 00:00:00,128.8,-8.7
2023/01/25 00:10:00,129.1,-8.4
2023/01/25 00:20:00,129.1,-8.3
2023/01/25 00:30:00,129.1,-8.4
2023/01/25 00:40:00,129.9,-8.5
2023/01/25 00:50:00,130.2,-8.4
2023/01/25 01:00:00,130.9,-8.5
2023/01/25 01:10:00,131.9,-8.5
2023/01/25 01:20:00,132.5,-8.4
2023/01/25 01:30:00,133.0,-8.4
2023/01/25 01:40:00,133.5,-8.4
2023/01/25 01:50:00,133.4,-8.4
2023/01/25 02:00:00,134.0,-8.5
2023/01/25 02:10:00,134.6,-8.2
2023/01/25 02:20:00,134.9,-8.5
2023/01/25 02:30:00,135.4,-8.5
2023/01/25 02:40:00,135.7,-8.4
2023/01/25 02:50:00,136.2,-8.4
2023/01/25 03:00:00,136.9,-8.5
2023/01/25 03:10:00,137.5,-8.5
2023/01/25 03:20:00,138.2,-8.6
2023/01/25 03:30:00,138.8,-8.8
2023/01/25 03:40:00,139.6,-8.5
2023/01/25 03:50:00,140.1,-8.6
2023/01/25 04:00:00,140.7,-8.7
2023/01/25 04:10:00,141.0,-8.8
2023/01/25 04:20:00,141.7,-8.4
2023/01/25 04:30:00,142.4,-8.9
2023/01/25 04:40:00,142.9,-8.6
2023/01/25 04:50:00,144.0,-8.8
2023/01/25 05:00:00,145.1,-8.6
2023/01/25 05:10:00,146.7,-8.6
2023/01/25 05:20:00,149.1,-8.4
2023/01/25 05:30:00,150.7,-8.8
2023/01/25 05:40:00,151.3,-8.6
2023/01/25 05:50:00,151.0,-8.4
2023/01/25 06:00:00,150.5,-8.5
2023/01/25 06:10:00,150.8,-8.4
2023/01/25 06:20:00,151.3,-8.4
2023/01/25 06:30:00,151.4,-8.4
2023/01/25 06:40:00,151.5,-8.4
2023/01/25 06:50:00,153.0,-8.3
2023/01/25 07:00:00,153.6,-8.2
2023/01/25 07:10:00,154.3,-8.0
2023/01/25 07:20:00,155.6,-8.0
2023/01/25 07:30:00,157.0,-8.1
2023/01/25 07:40:00,157.2,-8.0
2023/01/25 07:50:00,157.3,-8.1
2023/01/25 08:00:00,157.3,-7.9
2023/01/25 08:10:00,157.5,-7.5
2023/01/25 08:20:00,157.4,-7.5
2023/01/25 08:30:00,157.6,-7.2
2023/01/25 08:40:00,157.4,-6.9
2023/01/25 08:50:00,157.2,-6.6
2023/01/25 09:00:00,157.2,-6.8
2023/01/25 09:10:00,157.2,-7.0
2023/01/25 09:20:00,157.4,-6.9
2023/01/25 09:30:00,157.8,-6.2
2023/01/25 09:40:00,157.7,-6.4
2023/01/25 09:50:00,157.0,-6.7
2023/01/25 10:00:00,157.0,-6.2
2023/01/25 10:10:00,156.6,-5.6
2023/01/25 10:20:00,156.3,-4.9
2023/01/25 10:30:00,155.4,-4.7
2023/01/25 10:40:00,155.0,-4.8
2023/01/25 10:50:00,154.6,-5.4
2023/01/25 11:00:00,154.7,-5.4
2023/01/25 11:10:00,154.3,-5.1
2023/01/25 11:20:00,154.8,-4.8
2023/01/25 11:30:00,154.5,-5.1
2023/01/25 11:40:00,155.9,-4.8
2023/01/25 11:50:00,155.8,-4.2
2023/01/25 12:00:00,155.1,-5.2
2023/01/25 12:10:00,155.4,-5.6
2023/01/25 12:20:00,155.7,-5.6
2023/01/25 12:30:00,155.9,-5.6
2023/01/25 12:40:00,156.6,-5.6
2023/01/25 12:50:00,156.3,-5.8
2023/01/25 13:00:00,156.8,-5.2
2023/01/25 13:10:00,156.8,-5.0
2023/01/25 13:20:00,156.8,-4.8
2023/01/25 13:30:00,156.5,-4.7
2023/01/25 13:40:00,156.6,-4.4
2023/01/25 13:50:00,156.5,-4.4
2023/01/25 14:00:00,156.3,-4.7
2023/01/25 14:10:00,156.4,-4.3
2023/01/25 14:20:00,156.2,-4.1
2023/01/25 14:30:00,155.9,-4.4
2023/01/25 14:40:00,155.9,-4.5
2023/01/25 14:50:00,156.2,-4.8
2023/01/25 15:00:00,156.7,-4.7
2023/01/25 15:10:00,157.2,-4.7
2023/01/25 15:20:00,157.2,-4.6
2023/01/25 15:30:00,156.8,-4.3
2023/01/25 15:40:00,156.3,-4.3
2023/01/25 15:50:00,156.0,-4.3
2023/01/25 16:00:00,155.9,-4.7
2023/01/25 16:10:00,155.8,-4.8
2023/01/25 16:20:00,155.8,-5.1
2023/01/25 16:30:00,155.8,-5.5
2023/01/25 16:40:00,156.4,-5.2
2023/01/25 16:50:00,156.2,-4.8
2023/01/25 17:00:00,155.6,-5.3
2023/01/25 17:10:00,155.3,-5.2
2023/01/25 17:20:00,155.1,-5.6
2023/01/25 17:30:00,154.7,-6.0
2023/01/25 17:40:00,154.4,-5.7
2023/01/25 17:50:00,154.3,-5.9
2023/01/25 18:00:00,153.9,-5.8
2023/01/25 18:10:00,153.9,-6.0
2023/01/25 18:20:00,153.9,-6.1
2023/01/25 18:30:00,153.5,-6.1
2023/01/25 18:40:00,153.3,-6.1
2023/01/25 18:50:00,153.2,-6.5
2023/01/25 19:00:00,152.8,-6.1
2023/01/25 19:10:00,153.1,-6.4
2023/01/25 19:20:00,153.0,-6.2
2023/01/25 19:30:00,152.6,-6.3
2023/01/25 19:40:00,152.5,-6.4
2023/01/25 19:50:00,152.4,-6.4
2023/01/25 20:00:00,151.7,-6.6
2023/01/25 20:10:00,151.4,-6.4
2023/01/25 20:20:00,151.4,-6.5
2023/01/25 20:30:00,151.4,-6.4
2023/01/25 20:40:00,151.1,-6.7
2023/01/25 20:50:00,150.7,-6.6
2023/01/25 21:00:00,150.4,-6.2
2023/01/25 21:10:00,150.4,-6.2
2023/01/25 21:20:00,150.6,-6.2
2023/01/25 21:30:00,150.4,-6.3
2023/01/25 21:40:00,150.4,-6.3
2023/01/25 21:50:00,150.2,-6.1
2023/01/25 22:00:00,149.5,-6.2
2023/01/25 22:10:00,148.9,-6.7
2023/01/25 22:20:00,148.8,-6.8
2023/01/25 22:30:00,148.5,-7.1
2023/01/25 22:40:00,148.3,-7.0
2023/01/25 22:50:00,148.0,-7.5
2023/01/25 23:00:00,147.8,-8.1
2023/01/25 23:10:00,147.7,-7.9
2023/01/25 23:20:00,147.5,-8.3
2023/01/25 23:30:00,147.6,-8.4
2023/01/25 23:40:00,147.6,-9.0
2023/01/25 23:50:00,146.9,-9.1
